METEOR 1-17 DEB

Satellite information

Favourite Embed

Satellite Type and Status

DEBRISIN ORBIT

Key statistics

Satellite METEOR 1-17 DEB at a glance.

Uptime

18757

Days in orbit

Revolutions

≈ 14.2

Per day

Orbit

LEO

Low Earth Orbit

Inclination

81.2

Latest

Satellite identification and parameters

Extended collection of information and parameters for METEOR 1-17 DEB.

Object identification

Identified? True

Debris? True

Object name: METEOR 1-17 DEB

International designator: 1974-025N

Object number (NORAD): 57957

Object ID (CCSDS): 57957

Country: COMMONWEALTH OF INDEPENDENT STATES (CIS)

Current information (Y/N): Y

RCS size: SMALL

Orbital parameters

Period: 101.537 minutes

Inclination: 81.2109 deg

SMA: 7209.559 km

Apoapsis: 842.477 km

Periapsis: 820.37 km

RAAN: 214.9819 deg

Eccentricy: 0.00153322

Argument of periapsis: 79.9532 deg

Mean anomaly: 280.3372 deg

Mean motion: 14.18207407 rev/day

Mean motion (dot): 0.00005574 rev/day2

B* drag term: 0.0027025274 1/REarth

Two-line elements (TLE)

Creation date: Aug. 30, 2025, 11:24 a.m.

Reference frame: TEME

Reference center: EARTH

Epoch: Aug. 30, 2025, 4:39 a.m. UTC

TLE line 0: 0 METEOR 1-17 DEB

TLE line 1: 1 57957U 74025N 25242.19428353 .00005574 00000-0 27025-2 0 9990

TLE line 2: 2 57957 81.2109 214.9819 0015332 79.9532 280.3372 14.18207407102461

Live tracking on map

Real-time ground track for satellite METEOR 1-17 DEB.

In-orbit conjunctions

A list of the most updated potential collisions computed for object METEOR 1-17 DEB.

Target Orbit TCA Probability of collision Miss distance Type
CZ-6A DEB LEO 2024-11-14 04:33:28 0.0002031369 636.0 (m) DEBRIS
CZ-6A DEB SSO 2024-11-14 00:26:30 0.002690285 147.0 (m) DEBRIS
FENGYUN 1C DEB SSO 2024-11-13 19:20:46 0.0002274527 913.0 (m) DEBRIS
NOAA 16 DEB SSO 2024-11-13 10:02:59 0.00012026 541.0 (m) DEBRIS
NOAA 16 DEB SSO 2024-11-13 08:20:55 0.0006534881 359.0 (m) DEBRIS

Associated space launch

The Meteor-1 series was the first series of Soviet meteorological satellites.

METEOR 1-17 DEB was lifted into orbit during the mission ‘Vostok 8A92M | Meteor-1 17 (22L)’, on board a Vostok 8A92M space rocket.

The launch took place on April 24, 1974, 11:50 a.m. from 43/4 (43R).

For more information about the launch, click the button.

Launch to space Vostok 8A92M | Meteor-1 17 (22L)
Vostok 8A92M | Meteor-1 17 (22L)

Agency: N/A

Status: Launch Successful

Launch date: April 24, 1974, 11:50 a.m. UTC

Rocket: Vostok 8A92M

Launch pad: 43/4 (43R)

Location: Plesetsk Cosmodrome, Russian Federation

...

Latest news about this satellite

There are no fresh news available about this satellite. Check back as we update our databases every day.


Newsletter sign-up

Weekly statistics, charts and insights to help you stay on top of the space industry.